[[{"header":{"parameterUnit":"m.s-1","parameterCategory":1,"la1":30.2991,"la2":30.254,"lo1":-89.0895,"lo2":-89.0444,"dy":0.0017,"dx":0.0017,"nx":28,"ny":28,"refTime":"2024-10-20T09:00:00:Z","depth":0,"parameterNumber":2,"parameterNumberName":"U-component_of_WINDS"},"data":[0,0,0,0,0,0,0,0,0,0,0,0,0,0,0,0,0,0,0,0,0,0,0,0,0,0,0,0,0,0,0,0,0,0,0,0,0,0,0,0,0,0,0,0,0,0,0,0,0,0,0,0,0,0,0,0,0,0,-1.4121,-1.4121,0,-1.4057,-1.4056,-1.4055,-1.3999,-1.3998,-1.3997,-1.3997,-1.3931,-1.393,-1.3929,0,0,0,0,0,0,0,0,0,0,0,0,0,-1.4197,-1.4196,-1.4121,-1.412,-1.412,-1.4057,-1.4056,-1.4055,-1.3999,-1.3998,-1.3997,-1.3996,-1.3932,-1.393,-1.3929,0,0,0,0,0,0,0,0,0,0,0,0,0,-1.4152,-1.4196,-1.4121,-1.4084,-1.408,-1.4057,-1.4056,-1.4055,-1.3999,-1.3998,-1.3997,-1.3996,-1.3932,-1.393,-1.3929,-1.3938,0,0,-1.3924,-1.3923,0,0,0,0,0,0,0,0,-1.4154,-1.4149,-1.409,-1.4086,-1.4082,-1.4035,-1.4059,-1.4016,-1.3999,-1.403,-1.3997,-1.3996,-1.3967,-1.3962,-1.3952,-1.3935,-1.3932,-1.3923,-1.3922,-1.3922,-1.3921,0,0,0,0,0,0,0,-1.4158,-1.4152,-1.4096,-1.409,-1.4084,-1.4071,-1.4063,-1.405,-1.4004,-1.4027,-1.4023,-1.4016,-1.3964,-1.3954,-1.395,-1.3931,-1.3923,-1.3922,-1.3921,-1.392,-1.3922,-1.3923,0,0,0,0,0,0,-1.4166,-1.4155,-1.4098,-1.4094,-1.4117,-1.4071,-1.4062,-1.4051,-1.4004,-1.3996,-1.4017,-1.4013,-1.3957,-1.3952,-1.3948,-1.3958,-1.3922,-1.392,-1.3919,-1.3921,-1.3923,-1.3924,0,0,0,0,0,0,-1.4168,-1.4162,-1.41,-1.4123,-1.4114,-1.407,-1.4058,-1.405,-1.404,-1.3997,-1.3988,-1.4015,-1.3956,-1.395,-1.3942,-1.3955,-1.3919,-1.3918,-1.392,-1.3922,-1.3923,-1.3978,0,0,0,0,0,0,-1.4171,-1.4163,-1.4165,-1.4124,-1.4113,-1.4095,-1.4059,-1.405,-1.4037,-1.4032,-1.3993,-1.3985,-1.3955,-1.3945,-1.394,-1.3952,-1.3916,-1.3919,-1.3921,-1.3923,-1.3975,-1.3981,-1.3987,0,0,0,0,0,-1.4174,-1.4183,-1.4166,-1.4159,-1.4115,-1.4096,-1.409,-1.4055,-1.4038,-1.4041,-1.4014,-1.3986,-1.3954,-1.3944,-1.3939,-1.395,-1.3918,-1.392,-1.3922,-1.3972,-1.398,-1.3987,0,0,0,0,0,0,-1.4226,-1.4176,-1.4157,-1.4153,-1.4129,-1.4086,-1.4089,-1.4064,-1.4045,-1.4041,-1.3999,-1.399,-1.3988,-1.3967,-1.3957,-1.3959,-1.3932,-1.3934,-1.3972,-1.3979,-1.3985,-1.3991,-1.3915,0,0,0,0,0,-1.4238,-1.4226,-1.4183,-1.4183,-1.4172,-1.4133,-1.4123,-1.4098,-1.4072,-1.4062,-1.4034,-1.401,-1.3995,-1.3985,-1.3968,-1.3971,-1.3964,-1.3977,-1.3983,-1.3988,-1.3991,-1.3994,-1.4001,-1.3932,-1.3932,-1.3932,0,0,-1.4261,-1.4232,-1.4227,-1.4193,-1.4172,-1.4162,-1.4125,-1.4114,-1.4107,-1.406,-1.4052,-1.403,-1.4001,-1.3999,-1.3997,-1.3983,-1.4008,-1.3991,-1.3996,-1.3995,-1.3997,-1.4004,-1.401,-1.3933,-1.3933,-1.3933,0,0,-1.4298,-1.4274,-1.4273,-1.4253,-1.4222,-1.4196,-1.4196,-1.4157,-1.4142,-1.4132,-1.4098,-1.4089,-1.4062,-1.4044,-1.4031,-1.4065,-1.404,-1.406,-1.4092,-1.4097,-1.4102,-1.4107,-1.4122,-1.4128,-1.4062,-1.4062,-1.4062,0,-1.433,-1.4313,-1.4276,-1.4269,-1.4256,-1.4214,-1.4214,-1.4197,-1.4162,-1.4155,-1.4139,-1.4107,-1.4084,-1.4079,-1.4088,-1.4078,-1.4078,-1.4065,-1.4104,-1.4108,-1.4112,-1.4127,-1.4132,-1.4065,-1.4065,-1.4065,-1.4064,0,-1.4357,-1.4346,-1.4349,-1.4318,-1.4305,-1.4302,-1.4265,-1.4257,-1.4234,-1.421,-1.4203,-1.4174,-1.4152,-1.4149,-1.4125,-1.4142,-1.4134,-1.4112,-1.4085,-1.4123,-1.4135,-1.414,-1.407,-1.4069,-1.4068,-1.4067,0,0,-1.4425,-1.4375,-1.4377,-1.4364,-1.4327,-1.4319,-1.4314,-1.4294,-1.4289,-1.4267,-1.4264,-1.4244,-1.4224,-1.4209,-1.4184,-1.4187,-1.422,-1.4164,-1.4163,-1.4179,-1.424,-1.426,-1.4266,-1.4202,-1.4203,-1.4204,-1.4244,0,-1.4459,-1.4449,-1.4416,-1.4417,-1.4408,-1.4369,-1.4365,-1.4344,-1.4322,-1.4312,-1.4287,-1.4275,-1.4248,-1.4239,-1.4241,-1.4216,-1.4232,-1.4212,-1.4202,-1.4202,-1.4213,-1.4272,-1.4292,-1.4331,-1.4248,-1.4249,-1.4249,0,-1.4496,-1.4478,-1.4479,-1.4446,-1.4441,-1.4438,-1.4419,-1.4409,-1.4384,-1.4368,-1.4354,-1.4326,-1.4321,-1.4295,-1.4289,-1.4276,-1.427,-1.4258,-1.4258,-1.4258,-1.423,-1.4277,-1.4342,-1.435,-1.4256,-1.4256,-1.4255,0,-1.4551,-1.4526,-1.4524,-1.4513,-1.4474,-1.4474,-1.4457,-1.4432,-1.4423,-1.4405,-1.44,-1.4382,-1.4373,-1.436,-1.4329,-1.4312,-1.4329,-1.4298,-1.4318,-1.4319,-1.4325,-1.4325,-1.4393,-1.4316,-1.4316,-1.4315,-1.4315,0,-1.4593,-1.4595,-1.4548,-1.4547,-1.455,-1.4513,-1.4516,-1.4496,-1.4474,-1.447,-1.4434,-1.4431,-1.4388,-1.4381,-1.4356,-1.4358,-1.4353,-1.4342,-1.4336,-1.4347,-1.4349,-1.4344,-1.4342,-1.4317,-1.4317,-1.4316,-1.4316,0,-1.4654,-1.4622,-1.4618,-1.4582,-1.4573,-1.4577,-1.4547,-1.4545,-1.4522,-1.4517,-1.4514,-1.4477,-1.4467,-1.4434,-1.4415,-1.4399,-1.4409,-1.4395,-1.4418,-1.4415,-1.4437,-1.4437,-1.4507,-1.4516,-1.443,-1.4431,-1.4431,0,-1.4685,-1.4686,-1.4651,-1.4646,-1.4632,-1.4623,-1.4615,-1.4578,-1.4571,-1.4545,-1.4547,-1.4534,-1.4522,-1.4508,-1.448,-1.4466,-1.4454,-1.448,-1.4452,-1.4464,-1.4459,-1.4461,-1.4462,-1.4487,-1.4488,-1.4489,-1.4489,0,-1.4744,-1.4729,-1.4717,-1.4702,-1.4693,-1.4678,-1.4661,-1.4659,-1.4619,-1.4613,-1.4602,-1.4593,-1.4575,-1.4564,-1.4546,-1.453,-1.4505,-1.4498,-1.4503,-1.4516,-1.453,-1.4526,-1.4438,-1.4497,-1.4497,-1.4496,-1.4496,-1.4495,-1.4793,-1.4794,-1.4771,-1.476,-1.4744,-1.473,-1.4729,-1.4706,-1.4696,-1.468,-1.4658,-1.4652,-1.463,-1.4603,-1.459,-1.4585,-1.457,-1.4576,-1.4578,-1.4581,-1.4588,-1.4529,-1.4581,-1.4581,-1.4581,-1.458,-1.458,0,-1.4853,-1.4837,-1.4827,-1.4807,-1.4799,-1.4775,-1.4756,-1.4752,-1.4747,-1.4728,-1.4718,-1.4708,-1.4698,-1.467,-1.4657,-1.4659,-1.4647,-1.4657,-1.4659,-1.4656,-1.4599,-1.4598,-1.4668,-1.4668,-1.4667,-1.4667,-1.4667,-1.4667,-1.4884,-1.4885,-1.4868,-1.4863,-1.4846,-1.4839,-1.4831,-1.482,-1.4805,-1.4796,-1.4788,-1.477,-1.4749,-1.4735,-1.4725,-1.4717,-1.4716,-1.4731,-1.472,-1.4668,-1.466,-1.4652,-1.4651,-1.473,-1.473,-1.4778,-1.4778,-1.4778]},{"header":{"parameterUnit":"m.s-1","parameterCategory":1,"la1":30.2991,"la2":30.254,"lo1":-89.0895,"lo2":-89.0444,"dy":0.0017,"dx":0.0017,"nx":28,"ny":28,"refTime":"2024-10-20T09:00:00:Z","depth":0,"parameterNumber":3,"parameterNumberName":"V-component_of_WINDS"},"data":[0,0,0,0,0,0,0,0,0,0,0,0,0,0,0,0,0,0,0,0,0,0,0,0,0,0,0,0,0,0,0,0,0,0,0,0,0,0,0,0,0,0,0,0,0,0,0,0,0,0,0,0,0,0,0,0,0,0,0.3556,0.3556,0,0.3559,0.3559,0.3559,0.3534,0.3533,0.3533,0.3532,0.3533,0.3534,0.3535,0,0,0,0,0,0,0,0,0,0,0,0,0,0.3528,0.3529,0.3556,0.3556,0.3556,0.3559,0.3559,0.3559,0.3534,0.3533,0.3532,0.3532,0.3533,0.3534,0.3535,0,0,0,0,0,0,0,0,0,0,0,0,0,0.3536,0.3529,0.3556,0.3544,0.3543,0.3559,0.3559,0.3559,0.3534,0.3533,0.3532,0.3531,0.3533,0.3534,0.3535,0.3561,0,0,0.3538,0.3538,0,0,0,0,0,0,0,0,0.3536,0.3537,0.3546,0.3545,0.3544,0.3545,0.3549,0.356,0.3534,0.3538,0.3532,0.3531,0.3538,0.3538,0.3541,0.3561,0.3562,0.3538,0.3539,0.3539,0.3539,0,0,0,0,0,0,0,0.3535,0.3537,0.3557,0.3546,0.3545,0.3538,0.3538,0.3551,0.3543,0.3537,0.3535,0.3536,0.3537,0.354,0.3541,0.3562,0.3538,0.3539,0.3539,0.354,0.36,0.3601,0,0,0,0,0,0,0.3537,0.3537,0.3557,0.3557,0.3537,0.3539,0.3539,0.3546,0.3543,0.3542,0.3537,0.3535,0.3539,0.354,0.3541,0.3569,0.3539,0.354,0.3541,0.3599,0.3601,0.3602,0,0,0,0,0,0,0.3536,0.3539,0.3557,0.3546,0.3548,0.3541,0.3548,0.3546,0.3549,0.3543,0.3541,0.3542,0.3538,0.3539,0.3556,0.3569,0.354,0.3541,0.3598,0.36,0.3601,0.3628,0,0,0,0,0,0,0.3535,0.3539,0.3549,0.3547,0.3549,0.3573,0.3549,0.3547,0.3551,0.3548,0.3547,0.3546,0.3538,0.3554,0.3557,0.357,0.3542,0.3597,0.3599,0.3601,0.3626,0.363,0.3634,0,0,0,0,0,0.3534,0.3557,0.355,0.3553,0.3562,0.3573,0.3575,0.3565,0.3552,0.3562,0.3558,0.3546,0.3568,0.3556,0.3559,0.3572,0.3596,0.3598,0.36,0.3624,0.3629,0.3634,0,0,0,0,0,0,0.3562,0.3557,0.3549,0.3572,0.3573,0.3569,0.3582,0.3571,0.3576,0.3574,0.3561,0.3561,0.3579,0.3578,0.3565,0.3596,0.3579,0.3582,0.3596,0.3601,0.3605,0.3604,0.3543,0,0,0,0,0,0.357,0.358,0.3576,0.3596,0.3597,0.3589,0.3594,0.3586,0.3587,0.3588,0.3585,0.3586,0.3592,0.3597,0.3603,0.3626,0.3624,0.3636,0.364,0.3644,0.3646,0.3654,0.3659,0.3609,0.3609,0.3609,0,0,0.3588,0.3587,0.3594,0.3601,0.3602,0.3611,0.359,0.3602,0.3608,0.3589,0.3604,0.3602,0.3602,0.362,0.3629,0.362,0.3659,0.3646,0.3649,0.3649,0.3657,0.3662,0.3666,0.3611,0.361,0.361,0,0,0.3625,0.3626,0.3642,0.3642,0.3643,0.3637,0.3641,0.3638,0.3636,0.365,0.3636,0.3643,0.3656,0.3655,0.3657,0.3692,0.368,0.3694,0.3715,0.3723,0.3727,0.3731,0.374,0.3744,0.3697,0.3697,0.3697,0,0.3647,0.3661,0.3651,0.3663,0.3665,0.3649,0.3664,0.3665,0.3667,0.3669,0.3659,0.3673,0.3672,0.3689,0.3697,0.37,0.3702,0.3694,0.3728,0.3731,0.3734,0.3743,0.3747,0.3698,0.3698,0.3698,0.3698,0,0.3686,0.3696,0.3709,0.3711,0.3715,0.3729,0.3719,0.3725,0.3717,0.3712,0.3725,0.3723,0.3727,0.3731,0.3724,0.3747,0.3741,0.373,0.3712,0.374,0.3749,0.3752,0.3701,0.37,0.37,0.3699,0,0,0.374,0.3735,0.374,0.3739,0.3738,0.3745,0.3757,0.3761,0.3764,0.3766,0.3774,0.3785,0.3774,0.3775,0.3768,0.3776,0.38,0.3763,0.3763,0.3768,0.3822,0.3828,0.3833,0.3793,0.3794,0.3794,0.3821,0,0.3773,0.3793,0.3784,0.3804,0.3811,0.3795,0.3805,0.3805,0.38,0.3805,0.38,0.3807,0.3793,0.3794,0.3801,0.3796,0.381,0.3794,0.3798,0.3799,0.3796,0.3838,0.3845,0.387,0.3824,0.3825,0.3825,0,0.3815,0.3818,0.3838,0.3833,0.3836,0.3845,0.3847,0.3853,0.3851,0.3847,0.3848,0.3838,0.3848,0.3832,0.3844,0.3832,0.3834,0.3831,0.3832,0.383,0.3812,0.3835,0.3879,0.3882,0.3831,0.383,0.383,0,0.3848,0.3857,0.387,0.3871,0.3866,0.3872,0.387,0.3868,0.387,0.3872,0.3872,0.3875,0.3876,0.3878,0.3868,0.3858,0.3881,0.3865,0.3876,0.3876,0.388,0.3879,0.3922,0.3885,0.3885,0.3885,0.3885,0,0.3885,0.3897,0.3884,0.3892,0.3905,0.3894,0.3907,0.3904,0.3901,0.3907,0.3894,0.39,0.3888,0.3892,0.3885,0.3894,0.3895,0.3891,0.3888,0.3891,0.3891,0.389,0.3887,0.3886,0.3885,0.3885,0.3885,0,0.3923,0.3915,0.3928,0.3922,0.3921,0.393,0.3925,0.3931,0.3926,0.3933,0.3934,0.3925,0.3929,0.392,0.3923,0.3917,0.393,0.3926,0.3931,0.3928,0.3939,0.3938,0.3981,0.3986,0.3948,0.3948,0.3948,0,0.3946,0.3955,0.395,0.3952,0.3951,0.3956,0.3958,0.3948,0.395,0.3948,0.3954,0.3957,0.3958,0.3965,0.3958,0.3959,0.3954,0.3969,0.3954,0.3955,0.3951,0.395,0.3949,0.3971,0.3972,0.3972,0.3973,0,0.3986,0.3981,0.3984,0.3986,0.3988,0.3989,0.3989,0.3992,0.398,0.3983,0.3987,0.3988,0.399,0.3992,0.3992,0.3989,0.3978,0.3978,0.398,0.3981,0.3983,0.398,0.3936,0.3976,0.3976,0.3976,0.3975,0.3975,0.4015,0.4021,0.4018,0.4021,0.402,0.402,0.4025,0.4019,0.4022,0.4023,0.4017,0.4021,0.4018,0.4016,0.4015,0.4017,0.401,0.4014,0.4015,0.4015,0.4016,0.3984,0.4017,0.4017,0.4017,0.4017,0.4017,0,0.4052,0.4049,0.4052,0.4052,0.4054,0.4044,0.4043,0.4046,0.405,0.4048,0.4049,0.4052,0.4054,0.4047,0.4048,0.4051,0.4046,0.4051,0.405,0.4049,0.4023,0.402,0.4055,0.4055,0.4055,0.4055,0.4055,0.4055,0.4071,0.408,0.4075,0.4083,0.408,0.4084,0.4084,0.4083,0.4081,0.4085,0.4086,0.4082,0.4078,0.4077,0.4078,0.4076,0.4076,0.4082,0.4078,0.4054,0.4051,0.4047,0.4044,0.4083,0.4083,0.4103,0.4103,0.4103]}]]